Location: El Águila
(10.4167°N, 66.7167°W)
Time: 06:39:21
(UTC+00:00)

Cosmos 1428 Rocket - Pass Details

Date: 02 October 2022
Orbit: 947 x 988 km, 82.9° (Epoch: 26 November)

Event Time Altitude Azimuth Distance (km) Brightness Sun altitude
Rises 23:40:38 0° 185° (S) 3,612 7.5 -21.5°
Reaches altitude 10° 23:43:07 10° 185° (S) 2,670 6.8 -22.1°
Maximum altitude 23:49:14 83° 273° (W) 965 4.4 -23.6°
Drops below altitude 10° 23:55:24 10° 1° (N) 2,693 6.8 -25.1°
Sets 23:57:54 0° 3° (N) 3,645 7.5 -25.7°
